Location: Newark
(20.0000°S, 47.0000°E)
Time: 11:51:39
(UTC+00:00)

Envisat - Pass Details

Date: 19 June 2019
Orbit: 764 x 766 km, 98.1° (Epoch: 22 July)

Event Time Altitude Azimuth Distance (km) Brightness Sun altitude
Rises 02:37:08 0° 43° (NE) 3,213 7.5 -11.3°
Reaches altitude 10° 02:39:53 10° 58° (ENE) 2,294 7.0 -10.7°
Maximum altitude 02:43:43 22° 107° (ESE) 1,629 5.4 -9.9°
Drops below altitude 10° 02:47:34 10° 157° (SSE) 2,313 5.5 -9.1°
Sets 02:50:20 0° 171° (S) 3,246 6.1 -8.4°
